GW1062 Weather Reports


Display with metric or nautical units.
time (UTC)temp
F
wind
direction
speed
MPH
gust
MPH
rain 1hr
in
rain 24hr
in
rain mn
in
humidity
%
barometer
mb
20260906124553 69 10 2.0 5.0 0.00 0.00 0.00 99 979.5
20260906123051 69 10 2.0 6.0 0.00 0.00 0.00 98 979.4
20260906121551 69 9 2.0 5.0 0.00 0.00 0.00 99 979.3
20260906120048 68 10 2.0 5.0 0.00 0.00 0.00 99 979.1
20260906114550 68 10 2.0 6.0 0.00 0.00 0.00 99 978.8
20260906113049 68 10 1.0 3.0 0.00 0.00 0.00 99 978.8
20260906111545 68 10 1.0 4.0 0.00 0.00 0.00 98 978.7
20260906110145 68 10 0.0 3.0 0.00 0.00 0.00 98 978.8
20260906104542 68 9 0.0 4.0 0.00 0.00 0.00 98 978.8
20260906103042 69 10 1.0 5.0 0.00 0.00 0.00 98 978.8
20260906101542 69 10 1.0 4.0 0.00 0.00 0.00 98 978.7
20260906100040 69 9 0.0 3.0 0.00 0.00 0.00 98 978.6
20260906094539 69 9 1.0 3.0 0.00 0.00 0.00 98 978.6
20260906093039 69 9 0.0 1.0 0.00 0.00 0.00 98 978.7
20260906091538 69 9 1.0 2.0 0.00 0.00 0.00 98 978.7
20260906090036 69 9 0.0 1.0 0.00 0.00 0.00 98 978.5
20260906084536 69 9 0.0 4.0 0.00 0.00 0.00 98 978.4
20260906083040 69 10 0.0 5.0 0.00 0.00 0.00 98 978.3
20260906081537 69 9 1.0 4.0 0.00 0.00 0.00 98 978.1
20260906080033 70 9 2.0 4.0 0.00 0.00 0.00 98 978.1
20260906074535 70 10 1.0 3.0 0.00 0.00 0.00 97 978.2
20260906073030 70 9 0.0 1.0 0.00 0.00 0.00 98 978.6
20260906071530 70 9 0.0 2.0 0.00 0.00 0.00 97 978.4
20260906070031 70 9 0.0 2.0 0.00 0.00 0.00 97 978.5
20260906064534 70 9 0.0 2.0 0.00 0.00 0.00 97 978.5
20260906063026 71 9 0.0 2.0 0.00 0.00 0.00 97 978.5
20260906061526 71 10 1.0 5.0 0.00 0.00 0.00 97 978.4
20260906060023 71 9 0.0 5.0 0.00 0.00 0.00 97 978.3
20260906054521 72 10 2.0 7.0 0.00 0.00 0.00 97 978.1
20260906053021 72 10 2.0 7.0 0.00 0.00 0.00 97 978.1
20260906051513 72 9 2.0 7.0 0.00 0.00 0.00 97 978.1
20260906050026 72 10 2.0 6.0 0.00 0.00 0.00 96 978.1
20260906044509 72 8 2.0 7.0 0.00 0.00 0.00 96 978.3
20260906043010 72 9 2.0 5.0 0.00 0.00 0.00 96 978.0
20260906041507 73 9 1.0 4.0 0.00 0.00 0.00 97 978.1
20260906040009 73 9 2.0 5.0 0.00 0.00 0.00 97 978.1
20260906034505 73 10 1.0 4.0 0.00 0.00 0.00 96 978.1
20260906033005 73 9 1.0 5.0 0.00 0.00 0.00 97 978.1
20260906031504 74 8 2.0 4.0 0.00 0.00 0.00 96 977.9
20260906030004 74 9 1.0 4.0 0.00 0.00 0.00 96 977.9
20260906024505 74 10 1.0 4.0 0.00 0.00 0.00 96 977.7
20260906023002 75 8 2.0 6.0 0.00 0.00 0.00 96 977.6
20260906021502 75 10 2.0 7.0 0.00 0.00 0.00 96 977.4
20260906020001 76 8 0.0 5.0 0.00 0.00 0.00 95 977.3
20260906014621 77 9 1.0 4.0 0.00 0.00 0.00 95 976.9
20260906013059 77 10 2.0 4.0 0.00 0.00 0.00 95 976.5
20260906011605 78 9 1.0 4.0 0.00 0.00 0.00 94 976.4
20260906010059 79 9 1.0 4.0 0.00 0.00 0.00 92 976.5
20260906004600 80 8 0.0 3.0 0.00 0.00 0.00 90 976.5
20260906003106 80 8 0.0 5.0 0.00 0.00 0.00 89 976.4
20260906001557 81 8 1.0 3.0 0.00 0.00 0.00 88 976.3
20260906000056 82 9 0.0 3.0 0.00 0.00 0.00 87 976.3
20260905234612 82 9 0.0 1.0 0.00 0.00 0.00 87 976.5
20260905233055 83 9 0.0 4.0 0.00 0.00 0.00 84 976.2
20260905231554 83 9 1.0 4.0 0.00 0.00 0.00 84 976.3
20260905230054 84 9 2.0 6.0 0.00 0.00 0.00 83 976.1
20260905224553 83 10 3.0 5.0 0.00 0.00 0.00 84 976.0
20260905223052 84 9 2.0 5.0 0.00 0.00 0.00 84 976.0
20260905221552 85 9 0.0 4.0 0.00 0.00 0.00 82 976.3
20260905220053 85 10 2.0 7.0 0.00 0.00 0.00 80 976.1
20260905214602 85 9 2.0 6.0 0.00 0.00 0.00 82 976.0
20260905213050 86 325 2.0 5.0 0.00 0.00 0.00 78 976.0
20260905211548 87 356 3.0 6.0 0.00 0.00 0.00 79 975.8
20260905210048 86 30 7.0 14.0 0.00 0.00 0.00 81 975.0
20260905204547 86 316 6.0 13.0 0.00 0.00 0.00 81 975.2
20260905203046 86 350 5.0 11.0 0.00 0.00 0.00 81 975.6
20260905201545 86 333 4.0 10.0 0.00 0.00 0.00 84 976.0
20260905200047 86 309 4.0 9.0 0.00 0.00 0.00 85 976.3
20260905194541 85 324 4.0 10.0 0.00 0.00 0.00 84 976.6
20260905193040 86 9 3.0 8.0 0.00 0.00 0.00 86 976.8
20260905191539 84 10 4.0 10.0 0.00 0.00 0.00 86 976.8
20260905190035 83 9 4.0 9.0 0.00 0.00 0.00 88 977.0
20260905184538 81 9 0.0 4.0 0.00 0.00 0.00 89 977.2
20260905183037 81 6 1.0 4.0 0.00 0.00 0.00 88 977.7
20260905181534 83 6 2.0 6.0 0.00 0.00 0.00 84 978.0
20260905180033 84 7 1.0 8.0 0.00 0.00 0.00 85 977.7
20260905174539 84 8 1.0 5.0 0.00 0.00 0.00 84 977.7
20260905173028 83 8 0.0 3.0 0.00 0.00 0.00 86 978.0
20260905171527 82 6 1.0 5.0 0.00 0.00 0.00 87 978.2
20260905170026 82 8 0.0 5.0 0.00 0.00 0.00 86 978.0
20260905164524 82 6 1.0 5.0 0.00 0.00 0.00 86 977.8
20260905163023 82 8 1.0 5.0 0.00 0.00 0.00 86 977.9
20260905161522 82 8 1.0 5.0 0.00 0.00 0.00 86 977.8
20260905160038 82 6 0.0 5.0 0.00 0.00 0.00 86 977.8
20260905154519 82 7 1.0 3.0 0.00 0.00 0.00 86 977.7
20260905153016 81 7 1.0 5.0 0.00 0.00 0.00 87 977.7
20260905151514 81 7 0.0 1.0 0.00 0.00 0.00 88 977.4
20260905150021 80 7 0.0 3.0 0.00 0.00 0.00 90 977.4
20260905144527 79 7 0.0 3.0 0.00 0.00 0.00 92 977.2
20260905143008 78 7 0.0 2.0 0.00 0.00 0.00 92 977.2
20260905141500 77 8 0.0 4.0 0.00 0.00 0.00 94 976.9
20260905140104 76 7 0.0 1.0 0.00 0.00 0.00 97 976.7
20260905134607 74 7 0.0 4.0 0.00 0.00 0.00 97 976.6
20260905133059 74 7 0.0 3.0 0.00 0.00 0.00 97 976.7
20260905131558 73 8 0.0 3.0 0.00 0.00 0.00 97 976.3
20260905130057 73 7 1.0 3.0 0.00 0.00 0.00 97 976.3